[[{"header":{"parameterUnit":"m.s-1","parameterCategory":1,"la1":30.2991,"la2":30.254,"lo1":-89.0895,"lo2":-89.0444,"dy":0.0017,"dx":0.0017,"nx":28,"ny":28,"refTime":"2024-08-29T21:00:00:Z","depth":0,"parameterNumber":2,"parameterNumberName":"U-component_of_WINDS"},"data":[0,0,0,0,0,0,0,0,0,0,0,0,0,0,0,0,0,0,0,0,0,0,0,0,0,0,0,0,0,0,0,0,0,0,0,0,0,0,0,0,0,0,0,0,0,0,0,0,0,0,0,0,0,0,0,0,0,0,-3.4765,-3.4765,0,-3.4794,-3.4794,-3.4794,-3.4723,-3.4721,-3.4718,-3.4716,-3.4745,-3.4748,-3.475,0,0,0,0,0,0,0,0,0,0,0,0,0,-3.4647,-3.465,-3.4765,-3.4765,-3.4766,-3.4793,-3.4794,-3.4794,-3.4723,-3.4721,-3.4718,-3.4715,-3.4744,-3.4747,-3.4751,0,0,0,0,0,0,0,0,0,0,0,0,0,-3.4689,-3.4651,-3.4765,-3.4734,-3.4731,-3.4793,-3.4794,-3.4794,-3.4724,-3.472,-3.4717,-3.4714,-3.4743,-3.4747,-3.4751,-3.4845,0,0,-3.4764,-3.4766,0,0,0,0,0,0,0,0,-3.4687,-3.4694,-3.4738,-3.4736,-3.4733,-3.4751,-3.4763,-3.4811,-3.4725,-3.4727,-3.4716,-3.4712,-3.475,-3.4753,-3.4766,-3.4846,-3.4847,-3.4765,-3.4767,-3.4769,-3.477,0,0,0,0,0,0,0,-3.4684,-3.4692,-3.4776,-3.4739,-3.4736,-3.4718,-3.472,-3.4772,-3.4757,-3.4726,-3.4721,-3.4725,-3.4748,-3.4762,-3.4766,-3.4848,-3.4765,-3.4768,-3.4771,-3.4773,-3.5004,-3.5007,0,0,0,0,0,0,-3.4686,-3.469,-3.4775,-3.4777,-3.4701,-3.4722,-3.4725,-3.4749,-3.4756,-3.4754,-3.4728,-3.4722,-3.4756,-3.4761,-3.4767,-3.4875,-3.4769,-3.4773,-3.4776,-3.5,-3.5005,-3.5009,0,0,0,0,0,0,-3.4683,-3.4694,-3.4774,-3.4732,-3.4741,-3.4728,-3.4755,-3.4751,-3.4765,-3.4757,-3.4754,-3.4746,-3.4754,-3.4761,-3.4825,-3.4875,-3.4775,-3.4779,-3.4996,-3.5002,-3.5007,-3.5093,0,0,0,0,0,0,-3.468,-3.4694,-3.4729,-3.4734,-3.4744,-3.4833,-3.4759,-3.4754,-3.4773,-3.4765,-3.4773,-3.4771,-3.4752,-3.4819,-3.483,-3.4879,-3.4782,-3.4992,-3.4999,-3.5005,-3.5086,-3.5101,-3.5114,0,0,0,0,0,-3.4676,-3.4753,-3.4732,-3.4742,-3.4788,-3.4836,-3.4842,-3.4818,-3.4777,-3.4813,-3.4807,-3.4771,-3.4868,-3.4827,-3.4838,-3.4889,-3.4988,-3.4997,-3.5005,-3.5079,-3.5098,-3.5113,0,0,0,0,0,0,-3.4755,-3.4753,-3.4729,-3.481,-3.4824,-3.4824,-3.4868,-3.4839,-3.4864,-3.4856,-3.4825,-3.4828,-3.4898,-3.49,-3.4854,-3.4979,-3.4921,-3.4932,-3.4974,-3.4992,-3.5005,-3.5002,-3.4786,0,0,0,0,0,-3.4782,-3.4821,-3.4817,-3.4889,-3.4897,-3.4882,-3.4902,-3.4882,-3.4895,-3.4901,-3.49,-3.4914,-3.4947,-3.497,-3.5001,-3.5086,-3.5086,-3.5127,-3.5141,-3.5152,-3.5161,-3.5204,-3.5222,-3.5035,-3.5035,-3.5035,0,0,-3.4838,-3.4841,-3.4868,-3.4905,-3.4913,-3.4953,-3.4887,-3.4933,-3.4962,-3.4908,-3.4968,-3.4968,-3.4982,-3.5057,-3.509,-3.5061,-3.5213,-3.5163,-3.5172,-3.5174,-3.5214,-3.5232,-3.5248,-3.5041,-3.504,-3.5039,0,0,-3.4959,-3.4967,-3.5026,-3.5036,-3.5049,-3.5038,-3.5053,-3.5057,-3.5055,-3.5115,-3.5074,-3.5109,-3.5168,-3.5178,-3.5191,-3.5316,-3.5282,-3.5327,-3.5399,-3.5441,-3.5456,-3.5469,-3.5511,-3.5526,-3.5336,-3.5336,-3.5336,0,-3.5026,-3.5086,-3.506,-3.5108,-3.5125,-3.5077,-3.5136,-3.5146,-3.5169,-3.5181,-3.5149,-3.522,-3.5226,-3.5302,-3.5332,-3.5345,-3.5359,-3.5325,-3.5456,-3.5469,-3.548,-3.552,-3.5536,-3.5341,-3.5341,-3.534,-3.534,0,-3.5167,-3.5209,-3.5255,-3.5277,-3.5299,-3.5353,-3.5334,-3.5359,-3.5338,-3.533,-3.5391,-3.5397,-3.5426,-3.5443,-3.5424,-3.5516,-3.5497,-3.5461,-3.5402,-3.5503,-3.554,-3.5555,-3.5349,-3.5347,-3.5345,-3.5344,0,0,-3.5338,-3.5345,-3.5362,-3.5371,-3.5382,-3.5413,-3.5464,-3.5493,-3.5514,-3.5532,-3.5572,-3.5623,-3.5589,-3.5604,-3.5585,-3.5622,-3.5718,-3.5581,-3.5581,-3.5604,-3.5817,-3.5843,-3.5861,-3.5696,-3.5699,-3.5701,-3.5815,0,-3.5456,-3.5543,-3.552,-3.5606,-3.5644,-3.5599,-3.5642,-3.5654,-3.5648,-3.5678,-3.5672,-3.5707,-3.5661,-3.5669,-3.5705,-3.5699,-3.576,-3.569,-3.5732,-3.5734,-3.5728,-3.588,-3.5908,-3.6015,-3.583,-3.5832,-3.5834,0,-3.5605,-3.5627,-3.5717,-3.572,-3.5735,-3.5775,-3.5798,-3.5829,-3.584,-3.5833,-3.5849,-3.5822,-3.5871,-3.5813,-3.5879,-3.5833,-3.5849,-3.5848,-3.5852,-3.5853,-3.5788,-3.5883,-3.6049,-3.6064,-3.5857,-3.5855,-3.5853,0,-3.5718,-3.5771,-3.583,-3.584,-3.5845,-3.5874,-3.5878,-3.5886,-3.5904,-3.5925,-3.5936,-3.5963,-3.5977,-3.5998,-3.5978,-3.5938,-3.6046,-3.5988,-3.604,-3.6041,-3.6064,-3.6062,-3.6231,-3.6078,-3.6078,-3.6078,-3.6077,0,-3.5851,-3.5907,-3.5881,-3.5917,-3.5978,-3.5952,-3.6013,-3.6011,-3.6019,-3.6053,-3.6017,-3.605,-3.6023,-3.6054,-3.6039,-3.6095,-3.6102,-3.6097,-3.6092,-3.6099,-3.6099,-3.6107,-3.6098,-3.6082,-3.6081,-3.608,-3.6079,0,-3.5987,-3.5972,-3.6033,-3.6033,-3.6035,-3.6079,-3.6079,-3.6112,-3.6104,-3.6148,-3.6157,-3.6143,-3.6178,-3.616,-3.6197,-3.6186,-3.6257,-3.6244,-3.6253,-3.6249,-3.6302,-3.6296,-3.648,-3.6502,-3.6337,-3.6339,-3.634,0,-3.6071,-3.6113,-3.6117,-3.6138,-3.6144,-3.6178,-3.6195,-3.6171,-3.6191,-3.6206,-3.6238,-3.6268,-3.6292,-3.6348,-3.6341,-3.6368,-3.6353,-3.6416,-3.6357,-3.6362,-3.6351,-3.6348,-3.6351,-3.6427,-3.6429,-3.643,-3.6432,0,-3.6222,-3.6212,-3.624,-3.6265,-3.6287,-3.6305,-3.6321,-3.6339,-3.6315,-3.634,-3.6374,-3.6392,-3.6428,-3.6458,-3.6481,-3.6484,-3.6454,-3.6451,-3.6464,-3.647,-3.6473,-3.647,-3.6283,-3.6446,-3.6445,-3.6444,-3.6443,-3.6442,-3.6333,-3.6368,-3.6375,-3.6406,-3.6415,-3.643,-3.646,-3.6455,-3.6483,-3.651,-3.6494,-3.6534,-3.6542,-3.657,-3.6577,-3.6607,-3.6582,-3.6602,-3.6606,-3.6611,-3.6617,-3.647,-3.6612,-3.6611,-3.6611,-3.661,-3.661,0,-3.648,-3.6483,-3.6512,-3.6534,-3.6558,-3.6528,-3.6542,-3.6564,-3.66,-3.661,-3.6634,-3.6672,-3.6701,-3.6696,-3.6723,-3.6747,-3.6734,-3.6755,-3.6752,-3.6752,-3.6639,-3.6624,-3.6765,-3.6765,-3.6765,-3.6765,-3.6765,-3.6765,-3.656,-3.6615,-3.6606,-3.6665,-3.6667,-3.6705,-3.6715,-3.6728,-3.6736,-3.6781,-3.6804,-3.6801,-3.6805,-3.6831,-3.6856,-3.6854,-3.6864,-3.689,-3.6882,-3.6776,-3.6761,-3.6746,-3.6731,-3.6893,-3.6893,-3.6993,-3.6994,-3.6994]},{"header":{"parameterUnit":"m.s-1","parameterCategory":1,"la1":30.2991,"la2":30.254,"lo1":-89.0895,"lo2":-89.0444,"dy":0.0017,"dx":0.0017,"nx":28,"ny":28,"refTime":"2024-08-29T21:00:00:Z","depth":0,"parameterNumber":3,"parameterNumberName":"V-component_of_WINDS"},"data":[0,0,0,0,0,0,0,0,0,0,0,0,0,0,0,0,0,0,0,0,0,0,0,0,0,0,0,0,0,0,0,0,0,0,0,0,0,0,0,0,0,0,0,0,0,0,0,0,0,0,0,0,0,0,0,0,0,0,1.8208,1.8207,0,1.8127,1.8126,1.8125,1.8,1.7998,1.7995,1.7993,1.7911,1.7911,1.791,0,0,0,0,0,0,0,0,0,0,0,0,0,1.8253,1.8253,1.8208,1.8207,1.8206,1.8127,1.8126,1.8125,1.8,1.7998,1.7995,1.7992,1.7911,1.7911,1.791,0,0,0,0,0,0,0,0,0,0,0,0,0,1.8209,1.8253,1.8208,1.8134,1.8126,1.8128,1.8126,1.8125,1.8001,1.7997,1.7994,1.7991,1.7911,1.7911,1.791,1.7977,0,0,1.791,1.791,0,0,0,0,0,0,0,0,1.8212,1.8208,1.8146,1.8139,1.8131,1.807,1.8112,1.8075,1.8002,1.8049,1.7993,1.7989,1.7966,1.7961,1.7954,1.7973,1.797,1.791,1.791,1.791,1.791,0,0,0,0,0,0,0,1.8215,1.821,1.8176,1.8145,1.8136,1.8105,1.8095,1.8104,1.8027,1.8044,1.8035,1.8027,1.7962,1.7954,1.7951,1.7969,1.791,1.791,1.791,1.791,1.8039,1.8042,0,0,0,0,0,0,1.8229,1.8214,1.8178,1.8173,1.8164,1.8107,1.8095,1.8093,1.8027,1.8014,1.803,1.8022,1.7956,1.7951,1.7948,1.8021,1.791,1.791,1.791,1.8035,1.804,1.8043,0,0,0,0,0,0,1.823,1.8227,1.8181,1.8191,1.8183,1.8109,1.8108,1.8093,1.8086,1.8016,1.8002,1.8037,1.7953,1.7948,1.7971,1.8016,1.791,1.7909,1.8031,1.8037,1.8041,1.8169,0,0,0,0,0,0,1.8232,1.8228,1.8253,1.8192,1.8183,1.8207,1.811,1.8094,1.8086,1.8074,1.8019,1.8006,1.795,1.7972,1.7971,1.8014,1.7909,1.8027,1.8034,1.804,1.816,1.8178,1.8193,0,0,0,0,0,1.8234,1.8292,1.8255,1.8251,1.8212,1.8209,1.8204,1.8138,1.809,1.8114,1.807,1.8008,1.8012,1.7975,1.7973,1.8017,1.8023,1.8032,1.8039,1.8153,1.8175,1.8193,0,0,0,0,0,0,1.8359,1.8283,1.824,1.828,1.8252,1.8188,1.8216,1.8163,1.8148,1.8138,1.8057,1.8045,1.8079,1.805,1.8011,1.8078,1.8008,1.8016,1.8096,1.8115,1.8131,1.8137,1.7909,0,0,0,0,0,1.8392,1.8396,1.8329,1.837,1.8358,1.8291,1.8287,1.8239,1.8206,1.8194,1.8151,1.8122,1.8116,1.8114,1.8105,1.8156,1.8142,1.8185,1.8202,1.8216,1.8223,1.8247,1.8266,1.8069,1.8069,1.8069,0,0,1.8458,1.8417,1.8424,1.8394,1.8367,1.8373,1.8281,1.8292,1.8295,1.8195,1.8214,1.8182,1.8144,1.8182,1.8196,1.8159,1.8274,1.8226,1.8237,1.8237,1.8257,1.8276,1.8293,1.8075,1.8074,1.8073,0,0,1.8582,1.8552,1.8583,1.8557,1.8517,1.8472,1.848,1.8424,1.8399,1.8417,1.8342,1.8345,1.8338,1.8313,1.83,1.8417,1.8359,1.8416,1.8501,1.8526,1.8541,1.8555,1.8596,1.8611,1.8424,1.8425,1.8425,0,1.8669,1.8676,1.8605,1.8621,1.861,1.852,1.8551,1.853,1.849,1.8484,1.8443,1.8432,1.84,1.843,1.8459,1.8451,1.8457,1.8422,1.8545,1.8557,1.8569,1.8607,1.8623,1.8432,1.8431,1.843,1.8429,0,1.8785,1.8791,1.8821,1.8784,1.8777,1.88,1.8733,1.8734,1.8687,1.8646,1.8666,1.8625,1.8606,1.861,1.8564,1.8634,1.8612,1.856,1.8487,1.8596,1.863,1.8644,1.8442,1.8439,1.8437,1.8435,0,0,1.8984,1.8909,1.8921,1.8903,1.8853,1.8856,1.8876,1.8857,1.886,1.8835,1.8849,1.8845,1.8796,1.8782,1.8733,1.8755,1.8849,1.8699,1.8697,1.8727,1.8922,1.8961,1.898,1.8811,1.8813,1.8815,1.8925,0,1.9097,1.9126,1.9064,1.9107,1.9111,1.9027,1.9044,1.9015,1.8978,1.8976,1.8934,1.8933,1.8869,1.8859,1.8877,1.8834,1.8887,1.8825,1.8822,1.8823,1.8834,1.8997,1.9039,1.9144,1.8938,1.894,1.8942,0,1.9233,1.9215,1.926,1.9207,1.9206,1.9223,1.9201,1.9201,1.9167,1.9138,1.9122,1.9065,1.908,1.9012,1.9031,1.8991,1.8986,1.8965,1.8967,1.8964,1.8889,1.8997,1.9176,1.9192,1.8963,1.8961,1.896,0,1.9373,1.936,1.9385,1.9373,1.9312,1.9326,1.9301,1.9263,1.9257,1.9238,1.9233,1.9217,1.9208,1.9196,1.9136,1.9092,1.9163,1.9089,1.9139,1.914,1.9156,1.9156,1.9336,1.9156,1.9155,1.9155,1.9155,0,1.9505,1.9535,1.9447,1.9462,1.9494,1.9422,1.9456,1.9423,1.939,1.9397,1.9324,1.9332,1.9253,1.9252,1.9205,1.9228,1.9225,1.9202,1.9189,1.9208,1.9211,1.9203,1.9194,1.9159,1.9158,1.9157,1.9157,0,1.9666,1.9608,1.9629,1.9571,1.9557,1.9583,1.9532,1.9544,1.9503,1.9513,1.9511,1.9446,1.9441,1.9381,1.9363,1.9332,1.9373,1.9347,1.9385,1.9376,1.9428,1.9424,1.9609,1.9629,1.9437,1.9439,1.9441,0,1.9753,1.9774,1.9719,1.9718,1.9697,1.9698,1.9691,1.9622,1.9617,1.9581,1.9597,1.9587,1.9575,1.9572,1.9523,1.9509,1.9481,1.9547,1.9479,1.9497,1.9481,1.9481,1.9482,1.9561,1.9564,1.9566,1.9567,0,1.9915,1.9885,1.9878,1.9861,1.9855,1.9838,1.9817,1.9821,1.9745,1.9744,1.9739,1.973,1.9713,1.9704,1.9681,1.9655,1.9599,1.959,1.96,1.9619,1.964,1.9629,1.9423,1.9585,1.9584,1.9582,1.9581,1.9581,2.004,2.0056,2.0019,2.0013,1.999,1.9972,1.998,1.994,1.9935,1.9915,1.9875,1.9877,1.9842,1.9806,1.9786,1.9785,1.9751,1.9767,1.9771,1.9775,1.9786,1.9642,1.9781,1.978,1.978,1.9779,1.9779,0,2.0197,2.017,2.0166,2.0138,2.0134,2.0082,2.0056,2.0056,2.0058,2.0031,2.0021,2.0016,2.0007,1.9958,1.9943,1.9952,1.9926,1.9951,1.9949,1.9944,1.9817,1.9809,1.9972,1.9972,1.9972,1.9972,1.9972,1.9972,2.0278,2.0301,2.0268,2.0279,2.025,2.0251,2.0241,2.0224,2.0202,2.0199,2.0192,2.016,2.0123,2.0106,2.0095,2.0081,2.0078,2.0112,2.0089,1.9971,1.9953,1.9935,1.9927,2.0112,2.0112,2.0215,2.0216,2.0217]}]]